Location: Home
(42.5358°N, 72.7383°W)
Time: 10:16:00
(UTC-04:00)

IRIDIUM 152 - Visible Passes

Search period start: 03 July 2022 00:00
Search period end: 13 July 2022 00:00
Orbit: 776 x 779 km, 86.4° (Epoch: 02 July)

Date Brightness Start Highest point End Pass type
(mag) Time Alt. Az. Time Alt. Az. Time Alt. Az.
03 Jul ? 04:09:33 10° S 04:14:43 69° E 04:19:55 10° N visible
04 Jul ? 03:36:33 10° SSE 03:41:19 38° E 03:46:07 10° NNE visible
05 Jul ? 03:04:11 10° SE 03:08:03 21° E 03:11:55 10° NNE visible
05 Jul ? 04:43:26 10° SSW 04:48:25 45° W 04:53:25 10° N visible
06 Jul ? 02:33:09 10° E 02:34:54 12° ENE 02:36:38 10° NE visible
06 Jul ? 04:09:36 10° S 04:14:48 83° W 04:20:04 10° N visible
07 Jul ? 03:36:17 10° SSE 03:41:20 54° E 03:46:26 10° NNE visible
08 Jul ? 03:03:31 10° SE 03:08:00 30° E 03:12:30 10° NNE visible
08 Jul ? 04:44:00 10° SW 04:48:37 32° W 04:53:16 10° NNW visible
09 Jul ? 02:31:30 10° ESE 02:34:46 17° ENE 02:38:02 10° NE visible
09 Jul ? 04:10:04 11° SSW 04:14:57 58° W 04:20:06 10° N visible
10 Jul ? 03:36:58 14° S 03:41:24 79° E 03:46:38 10° N visible
11 Jul ? 03:03:49 14° SSE 03:07:59 43° E 03:12:54 10° NNE visible
11 Jul ? 04:44:49 10° SW 04:48:53 23° WNW 04:52:58 10° NNW visible
12 Jul ? 02:30:41 10° SE 02:34:41 24° E 02:38:48 10° NNE visible
12 Jul ? 04:11:11 15° SW 04:15:08 40° W 04:20:03 10° NNW visible
